Regional Weather Roundup
Issued by NWS

Home | Current Version | Previous Version | Graphics & Text | Print | Product List | Glossary On
Versions: 1 2 3 4 5 6 7 8 9 10 11 12 13 14 15 16 17 18 19 20 21 22 23 24 25 26 27 28 29 30 31 32 33 34 35 36 37 38 39 40 41 42 43 44 45 46 47 48 49 50
705
ASUS43 KFSD 281510
RWRSD

WEATHER ROUNDUP FOR SOUTH DAKOTA
NATIONAL WEATHER SERVICE SIOUX FALLS SD
1000 AM CDT SUN AUG 28 2016

NOTE: "FAIR" INDICATES FEW OR NO CLOUDS BELOW 12,000 FEET WITH NO
SIGNIFICANT WEATHER AND/OR OBSTRUCTIONS TO VISIBILITY.


SDZ001>005-009-010-012>017-281600-
NORTHWEST AND NORTH CENTRAL SOUTH DAKOTA

CITY           SKY/WX    TMP DP  RH WIND       PRES   REMARKS
BUFFALO          N/A     67  57  70 SW3       29.89S
FAITH            N/A     73  57  57 SW5       29.93R
MOBRIDGE       SUNNY     75  64  68 S12       29.89S
$$

SDZ012>016-024>037-041>051-057-063-072>074-281600-
SOUTHWEST AND SOUTH CENTRAL SOUTH DAKOTA

CITY           SKY/WX    TMP DP  RH WIND       PRES   REMARKS
RAPID CTY ARPT SUNNY     73  51  46 NW5       29.97R
PIERRE         SUNNY     75  65  70 SE12      29.92S
CUSTER         SUNNY     73  33  23 NW3       30.13S
ELLSWORTH AFB  SUNNY     72  53  52 SW2       29.97R
PHILIP         SUNNY     75  62  64 SW8       29.93S
PINE RIDGE     SUNNY     74  57  55 SW9       30.02S
WINNER         FAIR      79  67  66 SW15      29.99R
$$

SDZ004>011-016>023-039-040-281600-
NORTHEAST SOUTH DAKOTA

CITY           SKY/WX    TMP DP  RH WIND       PRES   REMARKS
ABERDEEN       SUNNY     75  66  73 S16       29.96F
WATERTOWN      SUNNY     74  67  78 SE12      30.04F
BROOKINGS      MOSUNNY   73  68  84 S15G21    30.07S
SISSETON         N/A     71  63  75 S13G21    30.01F
$$

SDZ017-020-022-023-036>040-048>070-281600-
SOUTHEAST SOUTH DAKOTA

CITY           SKY/WX    TMP DP  RH WIND       PRES   REMARKS
SIOUX FALLS    MOSUNNY   75  70  84 SE12      30.07F
HURON          SUNNY     75  67  76 S17G24    29.98F
CHAMBERLAIN    SUNNY     79  69  71 S13       29.98S
MITCHELL       SUNNY     76  68  76 S18       30.01F
YANKTON        SUNNY     75  66  73 SE12      30.04S
$$

ABBREVIATIONS USED IN REMARKS
   TC - TEMPERATURE IN CELSIUS
  WCI - WIND CHILL INDEX
   HX - HEAT INDEX
  VSB - VISIBILITY





USA.gov is the U.S. government's official web portal to all federal, state and local government web resources and services.